Location: Caltech
(34.1382°N, 118.1253°W)
Time: 22:26:57
(UTC-07:00)

Cosmos 1408 Rocket - Visible Passes

Search period start: 24 September 2016 00:00
Search period end: 04 October 2016 00:00
Orbit: 602 x 631 km, 82.6° (Epoch: 24 September)

Date Brightness Start Highest point End Pass type
(mag) Time Alt. Az. Time Alt. Az. Time Alt. Az.
24 Sep 3.5 20:00:34 10° N 20:04:52 60° E 20:08:07 17° SSE visible
25 Sep 3.8 20:17:03 10° NNW 20:21:21 67° W 20:25:38 10° S visible
26 Sep 5.2 20:33:52 10° NNW 20:37:46 33° W 20:41:37 10° SSW visible
27 Sep 4.4 19:12:46 10° NNE 19:16:34 29° ENE 19:20:20 10° SE visible
27 Sep 6.3 20:51:14 10° NW 20:54:05 17° W 20:56:55 10° SW visible
28 Sep 3.5 19:28:52 10° N 19:33:09 58° E 19:37:23 10° SSE visible
29 Sep 3.8 19:45:20 10° NNW 19:49:39 70° W 19:53:55 10° S visible
30 Sep 5.3 20:02:08 10° NNW 20:06:03 34° W 20:09:57 10° SSW visible
01 Oct 6.4 20:19:28 10° NW 20:22:23 18° W 20:25:17 10° SW visible
02 Oct 3.6 18:57:11 10° N 19:01:26 55° E 19:05:39 10° SSE visible
03 Oct 3.8 19:13:37 10° N 19:17:57 72° W 19:22:12 10° S visible
